Location: Raleigh
(35.7720°N, 78.6390°W)
Time: 08:47:33
(UTC-04:00)

Amateur Radio Satellites - All Passes

Search period start: 19 October 2017 08:17
Search period end: 20 October 2017 08:17
Location: Raleigh, 35.7720°N, 78.6390°W

Satellite Date Start Highest point End Downlink Frequencies (MHz)
Time Altitude Azimuth
XW-2B 19 Oct 08:22:28 08:24:42 15° 291° (WNW) 08:26:55 145.730 - 145.750
ZACube-1 19 Oct 08:34:02 08:36:53 17° 93° (E) 08:39:40 437.345
XW-2A 19 Oct 08:36:59 08:40:08 39° 99° (E) 08:43:16 145.665 - 145.685
SO-50 19 Oct 08:41:21 08:44:56 23° 309° (NW) 08:48:33 436.795
UWE-3 19 Oct 08:52:00 08:56:26 56° 100° (E) 09:00:42 435.000/436.395/437.385
O/OREOS (USA 219) 19 Oct 08:55:16 08:57:44 14° 261° (W) 09:00:11 437.305
JUGNU 19 Oct 09:00:10 09:03:40 16° 180° (S) 09:07:10 437.505
RS-15 19 Oct 09:00:25 09:10:36 31° 39° (NE) 09:20:18 29.354- 29.394
CUTE 1.7 + AOD 2 19 Oct 09:01:51 09:05:33 31° 288° (WNW) 09:09:14 437.475
FO-29 19 Oct 09:02:30 09:07:29 51° 72° (ENE) 09:12:45 435.910
TIGRISAT 19 Oct 09:05:16 09:06:32 11° 64° (ENE) 09:07:50 435.000
SEEDS 19 Oct 09:11:35 09:15:28 39° 286° (WNW) 09:19:21 437.485
Oscar 11 19 Oct 09:12:35 09:16:18 28° 96° (E) 09:19:58 .
YUBILEINY 19 Oct 09:18:23 09:25:55 35° 86° (E) 09:33:28 435.215
HO-68 19 Oct 09:22:51 09:29:34 44° 293° (WNW) 09:36:15 435.675
STRAND 1 19 Oct 09:27:07 09:29:10 12° 269° (W) 09:31:11 437.568
SRMSAT 19 Oct 09:34:24 09:35:54 11° 166° (SSE) 09:37:24 437.500
PCSat 19 Oct 09:35:06 09:40:23 53° 300° (WNW) 09:45:41 145.827
AAUSAT CUBESAT 2 19 Oct 09:39:43 09:43:37 43° 286° (WNW) 09:47:32 437.432
nSIGHT-1 19 Oct 09:45:17 09:47:34 18° 130° (SE) 09:49:52 .
DELFI C3 19 Oct 09:47:09 09:48:55 13° 93° (E) 09:50:40 145.870
AO-73 19 Oct 09:47:46 09:52:06 71° 283° (WNW) 09:56:18 145.935
CUBEBUG 2 19 Oct 09:48:15 09:51:34 20° 292° (WNW) 09:54:49 437.445
ZACube-1 19 Oct 10:09:17 10:13:15 34° 288° (WNW) 10:17:06 437.345
ISS 19 Oct 10:13:54 10:16:52 33° 133° (SE) 10:19:51 437.550
PRISM 19 Oct 10:18:03 10:21:35 30° 71° (ENE) 10:25:09 437.425
UNISAT 6 19 Oct 10:22:45 10:27:22 88° 75° (ENE) 10:32:05 437.425
UWE-3 19 Oct 10:30:36 10:32:18 12° 295° (WNW) 10:33:59 435.000/436.395/437.385
TIGRISAT 19 Oct 10:37:59 10:42:33 69° 258° (WSW) 10:47:15 435.000
NO-84 19 Oct 10:46:14 10:49:02 19° 34° (NNE) 10:51:41 435.350 FM
Oscar 11 19 Oct 10:49:00 10:52:14 21° 291° (WNW) 10:55:27 .
JUGNU 19 Oct 10:49:16 10:51:53 13° 190° (S) 10:54:30 437.505
EO-88 19 Oct 10:49:46 10:53:10 38° 99° (E) 10:56:33 145.990 - 145.960
FO-29 19 Oct 10:50:05 10:53:01 15° 269° (W) 10:56:02 435.910
Max Valier Satellite 19 Oct 10:56:20 11:00:01 72° 103° (ESE) 11:03:39 145.860
RS-15 19 Oct 11:12:38 11:24:30 82° 244° (WSW) 11:35:41 29.354- 29.394
YUBILEINY 19 Oct 11:14:12 11:22:23 45° 283° (WNW) 11:30:40 435.215
DELFI C3 19 Oct 11:20:06 11:23:47 38° 286° (WNW) 11:27:28 145.870
SRMSAT 19 Oct 11:20:43 11:24:15 16° 176° (S) 11:27:49 437.500
nSIGHT-1 19 Oct 11:20:44 11:23:40 33° 324° (NW) 11:26:37 .
EO-79 19 Oct 11:36:52 11:40:07 22° 69° (ENE) 11:43:24 145.935-145.965
POLYITAN 1 19 Oct 11:41:01 11:44:27 24° 70° (ENE) 11:47:55 437.675
LO-87 19 Oct 11:44:00 11:46:48 21° 96° (E) 11:49:35 145.935 - 145.965
ISS 19 Oct 11:50:46 11:53:23 22° 328° (NNW) 11:56:01 437.550
PRISM 19 Oct 11:54:14 11:56:52 17° 265° (W) 11:59:31 437.425
AIST 2D 19 Oct 11:59:11 12:02:39 61° 260° (W) 12:06:08 435.315
QB50P2 19 Oct 12:00:28 12:04:32 45° 74° (ENE) 12:08:38 145.880/145.840
BEESAT 3 19 Oct 12:03:57 12:07:04 22° 111° (ESE) 12:10:14 437.485
NANOSAT C BR1 19 Oct 12:05:07 12:09:06 40° 73° (ENE) 12:13:06 145.865
DUCHIFAT 1 19 Oct 12:16:28 12:20:32 48° 74° (ENE) 12:24:38 145.980
NO-84 19 Oct 12:23:11 12:26:35 40° 233° (SW) 12:29:42 435.350 FM
EO-88 19 Oct 12:25:25 12:26:24 11° 293° (WNW) 12:27:25 145.990 - 145.960
BUGSAT 1 19 Oct 12:30:40 12:33:21 17° 68° (ENE) 12:36:03 437.445
ESTCUBE 1 19 Oct 12:37:40 12:42:08 68° 102° (ESE) 12:46:35 437.505/2401.250
SRMSAT 19 Oct 13:09:22 13:12:40 15° 187° (S) 13:15:59 437.500
EO-79 19 Oct 13:12:06 13:15:42 27° 264° (W) 13:19:20 145.935-145.965
POLYITAN 1 19 Oct 13:16:38 13:20:06 24° 264° (W) 13:23:36 437.675
LO-87 19 Oct 13:17:25 13:20:03 19° 290° (WNW) 13:22:40 145.935 - 145.965
BEESAT 2 19 Oct 13:20:51 13:24:41 48° 115° (ESE) 13:28:35 435.950
Oscar 19 19 Oct 13:24:17 13:28:59 37° 70° (ENE) 13:33:41 437.125/150
RS-15 19 Oct 13:28:41 13:34:52 16° 263° (W) 13:40:55 29.354- 29.394
SPROUT 19 Oct 13:33:15 13:37:32 68° 101° (E) 13:41:47 437.525
M-CUBED/EXP-1 PRIME 19 Oct 13:33:32 13:36:52 44° 70° (ENE) 13:40:02 437.505
QB50P2 19 Oct 13:38:41 13:40:31 12° 268° (W) 13:42:21 145.880/145.840
BEESAT 3 19 Oct 13:41:04 13:44:28 26° 306° (NW) 13:47:54 437.485
NANOSAT C BR1 19 Oct 13:42:43 13:44:56 14° 267° (W) 13:47:10 145.865
DX 1 19 Oct 13:44:56 13:46:47 12° 93° (E) 13:48:39 434.975-435.025
Gurwin Techsat 1B 19 Oct 13:46:02 13:50:59 41° 71° (ENE) 13:55:57 435.225
DUCHIFAT 1 19 Oct 13:54:55 13:56:24 12° 268° (W) 13:57:55 145.980
AO-85 19 Oct 14:02:43 14:06:35 84° 299° (WNW) 14:10:32 145.980
BUGSAT 1 19 Oct 14:04:35 14:08:23 34° 262° (W) 14:12:14 437.445
VELOX 1 19 Oct 14:08:57 14:13:23 71° 284° (WNW) 14:17:47 145.980
UKube-1 19 Oct 14:10:48 14:13:23 15° 94° (E) 14:15:57 .
50 SAT 19 Oct 14:16:20 14:19:23 34° 99° (E) 14:22:25 437.505
ESTCUBE 1 19 Oct 14:18:00 14:18:18 10° 296° (WNW) 14:18:36 437.505/2401.250
BEESAT 2 19 Oct 15:00:24 15:02:40 14° 312° (NW) 15:04:56 435.950
Oscar 19 19 Oct 15:04:20 15:08:20 23° 265° (W) 15:12:21 437.125/150
AO-7 19 Oct 15:10:28 15:18:19 49° 65° (ENE) 15:26:10 .
DX 1 19 Oct 15:18:58 15:23:11 48° 287° (WNW) 15:27:23 434.975-435.025
Gurwin Techsat 1B 19 Oct 15:27:06 15:31:02 21° 266° (W) 15:35:00 435.225
ITAMSAT 1 19 Oct 15:33:32 15:38:18 39° 70° (ENE) 15:43:07 435.822/435.867
SO-50 19 Oct 15:34:45 15:37:42 16° 47° (NE) 15:40:40 436.795
UKube-1 19 Oct 15:45:29 15:49:30 38° 288° (WNW) 15:53:30 .
MOZHAYETS 4 19 Oct 16:07:12 16:11:35 44° 99° (E) 16:15:55
nSIGHT-1 19 Oct 16:15:05 16:16:09 11° 24° (NNE) 16:17:12 .
CUBESAT XI-V 19 Oct 16:18:17 16:19:23 11° 91° (E) 16:20:30 437.345
ITUPSAT 1 19 Oct 16:26:10 16:30:55 61° 101° (ESE) 16:35:38 437.325
BEESAT 19 Oct 16:42:23 16:47:11 87° 280° (W) 16:51:57 436.000
ISS 19 Oct 16:44:25 16:46:34 16° 28° (NNE) 16:48:43 437.550
DOVE 4 19 Oct 16:47:52 16:50:49 19° 68° (ENE) 16:53:51 437.250
AO-7 19 Oct 17:03:54 17:11:10 34° 262° (W) 17:18:29 .
ITAMSAT 1 19 Oct 17:13:55 17:17:50 22° 265° (W) 17:21:48 435.822/435.867
SO-50 19 Oct 17:13:57 17:18:29 56° 244° (WSW) 17:23:04 436.795
XW-2B 19 Oct 17:28:55 17:29:04 10° 66° (ENE) 17:29:12 145.730 - 145.750
CUTE-I 19 Oct 17:36:45 17:40:11 18° 64° (ENE) 17:43:38 437.470
KKS-1 19 Oct 17:42:06 17:45:51 26° 96° (E) 17:49:36 437.445
MOZHAYETS 4 19 Oct 17:45:37 17:48:19 16° 294° (WNW) 17:51:01
XW-2C 19 Oct 17:49:17 17:52:03 19° 70° (ENE) 17:54:49 145.795 - 145.815
nSIGHT-1 19 Oct 17:49:43 17:52:55 72° 41° (NE) 17:56:07 .
CUBESAT XI-V 19 Oct 17:52:33 17:57:04 60° 285° (WNW) 18:01:36 437.345
HO-68 19 Oct 18:02:57 18:07:31 18° 59° (ENE) 18:12:04 435.675
ITUPSAT 1 19 Oct 18:06:02 18:08:10 13° 296° (WNW) 18:10:18 437.325
STARS 19 Oct 18:17:44 18:21:24 25° 96° (E) 18:25:03 437.465
ISS 19 Oct 18:20:04 18:23:18 59° 225° (SW) 18:26:30 437.550
DOVE 4 19 Oct 18:24:42 18:28:18 28° 264° (W) 18:32:00 437.250
PCSat 19 Oct 18:25:38 18:31:03 66° 62° (ENE) 18:36:24 145.827
XW-2F 19 Oct 18:33:56 18:37:42 71° 77° (ENE) 18:41:28 145.980 - 146.000
KAITUO 1B 19 Oct 18:33:56 18:37:35 52° 76° (ENE) 18:41:14 145.475/437.950
LilacSat-2 19 Oct 18:37:00 18:40:50 88° 256° (WSW) 18:44:41 437.200
XW-2D 19 Oct 18:45:32 18:49:20 70° 260° (W) 18:53:07 145.860 - 145.880
NUDT-PHONESAT 19 Oct 18:49:39 18:53:23 85° 73° (ENE) 18:57:06 437.300
XW-2B 19 Oct 18:59:05 19:02:46 47° 260° (W) 19:06:27 145.730 - 145.750
CUBEBUG 2 19 Oct 19:06:17 19:09:49 22° 68° (ENE) 19:13:23 437.445
CUTE-I 19 Oct 19:14:36 19:19:45 52° 260° (W) 19:24:58 437.470
KKS-1 19 Oct 19:18:38 19:22:17 25° 291° (WNW) 19:25:54 437.445
XW-2C 19 Oct 19:22:59 19:26:03 23° 264° (W) 19:29:08 145.795 - 145.815
ZACube-1 19 Oct 19:28:39 19:29:47 11° 64° (ENE) 19:30:54 437.345
YUBILEINY 19 Oct 19:33:44 19:37:45 14° 63° (ENE) 19:41:45 435.215
UWE-3 19 Oct 19:45:38 19:49:44 33° 71° (ENE) 19:53:54 435.000/436.395/437.385
HO-68 19 Oct 19:47:13 19:54:23 79° 256° (WSW) 20:01:36 435.675
CUTE 1.7 + AOD 2 19 Oct 19:50:39 19:54:51 67° 259° (W) 19:59:04 437.475
STARS 19 Oct 19:53:59 19:57:37 25° 291° (WNW) 20:01:14 437.465
STRAND 1 19 Oct 19:58:24 20:02:48 28° 96° (E) 20:07:09 437.568
SEEDS 19 Oct 19:59:32 20:03:43 89° 261° (W) 20:07:54 437.485
Oscar 11 19 Oct 20:05:26 20:08:04 16° 67° (ENE) 20:10:42 .
PCSat 19 Oct 20:11:08 20:13:47 14° 257° (WSW) 20:16:25 145.827
AAUSAT CUBESAT 2 19 Oct 20:26:10 20:30:16 79° 76° (ENE) 20:34:22 437.432
XW-2A 19 Oct 20:37:15 20:40:30 41° 261° (W) 20:43:46 145.665 - 145.685
AO-73 19 Oct 20:39:24 20:43:53 60° 75° (ENE) 20:48:24 145.935
CUBEBUG 2 19 Oct 20:42:00 20:46:09 33° 263° (W) 20:50:26 437.445
ZACube-1 19 Oct 21:00:52 21:05:25 68° 260° (W) 21:10:00 437.345
UWE-3 19 Oct 21:22:41 21:26:11 21° 266° (W) 21:29:44 435.000/436.395/437.385
O/OREOS (USA 219) 19 Oct 21:23:21 21:27:53 88° 291° (WNW) 21:32:30 437.305
EO-88 19 Oct 21:26:29 21:27:43 11° 68° (ENE) 21:28:58 145.990 - 145.960
YUBILEINY 19 Oct 21:27:07 21:35:58 79° 83° (E) 21:44:48 435.215
Max Valier Satellite 19 Oct 21:32:44 21:35:31 20° 70° (ENE) 21:38:18 145.860
STRAND 1 19 Oct 21:37:26 21:41:53 30° 291° (WNW) 21:46:19 437.568
Oscar 11 19 Oct 21:39:48 21:43:51 39° 262° (W) 21:47:55 .
HO-68 19 Oct 21:41:50 21:43:01 10° 271° (W) 21:44:13 435.675
BEESAT 2 19 Oct 21:42:13 21:44:19 14° 48° (NE) 21:46:23 435.950
FO-29 19 Oct 21:57:03 22:04:03 68° 102° (ESE) 22:11:42 435.910
BEESAT 3 19 Oct 21:59:32 22:03:28 68° 59° (ENE) 22:07:19 437.485
DELFI C3 19 Oct 22:01:45 22:05:38 73° 77° (ENE) 22:09:32 145.870
UNISAT 6 19 Oct 22:18:05 22:21:45 23° 95° (E) 22:25:20 437.425
AO-73 19 Oct 22:19:17 22:20:26 11° 269° (W) 22:21:35 145.935
TIGRISAT 19 Oct 22:32:47 22:36:52 31° 97° (E) 22:40:50 435.000
AO-85 19 Oct 22:35:37 22:39:55 37° 56° (NE) 22:44:29 145.980
EO-88 19 Oct 22:57:34 23:00:59 37° 262° (W) 23:04:23 145.990 - 145.960
Max Valier Satellite 19 Oct 23:06:17 23:09:11 21° 264° (W) 23:12:06 145.860
BEESAT 2 19 Oct 23:18:25 23:22:20 51° 244° (WSW) 23:26:11 435.950
RS-15 19 Oct 23:23:21 23:31:13 20° 99° (E) 23:39:05 29.354- 29.394
YUBILEINY 19 Oct 23:26:12 23:31:38 18° 280° (W) 23:37:06 435.215
AIST 2D 19 Oct 23:28:50 23:29:49 11° 92° (E) 23:30:48 435.315
ESTCUBE 1 19 Oct 23:34:08 23:38:22 43° 73° (ENE) 23:42:37 437.505/2401.250
PRISM 19 Oct 23:36:20 23:40:27 77° 101° (E) 23:44:36 437.425
FO-29 19 Oct 23:43:27 23:48:33 22° 295° (WNW) 23:53:59 435.910
LO-87 19 Oct 23:49:07 23:52:41 78° 258° (WSW) 23:56:19 145.935 - 145.965
UNISAT 6 19 Oct 23:54:28 23:58:23 28° 290° (WNW) 00:02:13 437.425
TIGRISAT 20 Oct 00:09:50 00:13:18 22° 292° (WNW) 00:16:43 435.000
AO-85 20 Oct 00:16:27 00:20:09 23° 249° (WSW) 00:24:01 145.980
SPROUT 20 Oct 00:23:32 00:27:24 34° 72° (ENE) 00:31:17 437.525
EO-79 20 Oct 00:58:41 01:02:54 58° 100° (E) 01:07:04 145.935-145.965
AIST 2D 20 Oct 00:59:58 01:03:05 31° 286° (WNW) 01:06:10 435.315
VELOX 1 20 Oct 01:02:53 01:07:13 70° 75° (ENE) 01:11:36 145.980
POLYITAN 1 20 Oct 01:03:13 01:07:27 66° 101° (E) 01:11:39 437.675
ESTCUBE 1 20 Oct 01:12:48 01:15:19 15° 267° (W) 01:17:51 437.505/2401.250
QB50P2 20 Oct 01:23:29 01:27:42 61° 285° (WNW) 01:31:52 145.880/145.840
NANOSAT C BR1 20 Oct 01:27:20 01:31:35 71° 283° (WNW) 01:35:45 145.865
RS-15 20 Oct 01:29:41 01:41:57 88° 118° (ESE) 01:54:21 29.354- 29.394
DUCHIFAT 1 20 Oct 01:38:29 01:42:40 59° 285° (WNW) 01:46:47 145.980
Oscar 19 20 Oct 01:39:50 01:42:53 16° 93° (E) 01:45:54 437.125/150
BUGSAT 1 20 Oct 01:48:45 01:52:44 39° 99° (E) 01:56:38 437.445
SPROUT 20 Oct 02:00:35 02:03:21 17° 266° (W) 02:06:07 437.525
Gurwin Techsat 1B 20 Oct 02:05:49 02:09:44 20° 94° (E) 02:13:36 435.225
DX 1 20 Oct 02:11:04 02:15:23 83° 259° (W) 02:19:43 434.975-435.025
50 SAT 20 Oct 02:13:46 02:16:55 47° 260° (W) 02:20:05 437.505
UKube-1 20 Oct 02:36:22 02:40:37 68° 258° (WSW) 02:44:55 .
EO-79 20 Oct 02:37:07 02:38:06 11° 295° (WNW) 02:39:03 145.935-145.965
M-CUBED/EXP-1 PRIME 20 Oct 02:47:27 02:51:00 55° 106° (ESE) 02:54:48 437.505
MOZHAYETS 4 20 Oct 03:06:11 03:10:14 31° 71° (ENE) 03:14:18
AO-7 20 Oct 03:17:09 03:22:05 17° 93° (E) 03:26:59 .
Oscar 19 20 Oct 03:17:29 03:22:26 51° 287° (WNW) 03:27:22 437.125/150
BUGSAT 1 20 Oct 03:25:17 03:27:41 15° 293° (WNW) 03:30:05 437.445
ITUPSAT 1 20 Oct 03:29:48 03:34:27 51° 73° (ENE) 03:39:07 437.325
NO-84 20 Oct 03:34:29 03:38:46 79° 132° (SE) 03:43:03 435.350 FM
Gurwin Techsat 1B 20 Oct 03:44:47 03:49:47 43° 289° (WNW) 03:54:46 435.225
BEESAT 20 Oct 03:45:32 03:50:18 78° 75° (ENE) 03:55:06 436.000
RS-15 20 Oct 03:45:47 03:56:07 30° 321° (NW) 04:06:28 29.354- 29.394
ITAMSAT 1 20 Oct 03:50:13 03:53:36 17° 94° (E) 03:56:57 435.822/435.867
KKS-1 20 Oct 04:38:02 04:40:58 18° 67° (ENE) 04:43:54 437.445
MOZHAYETS 4 20 Oct 04:43:46 04:47:21 22° 265° (W) 04:50:58
CUBESAT XI-V 20 Oct 04:52:25 04:57:04 87° 260° (W) 05:01:42 437.345
AO-7 20 Oct 05:07:17 05:15:37 85° 289° (WNW) 05:23:57 .
ITUPSAT 1 20 Oct 05:09:58 05:12:31 14° 267° (W) 05:15:03 437.325
STARS 20 Oct 05:12:18 05:15:01 16° 67° (ENE) 05:17:45 437.465
NO-84 20 Oct 05:13:44 05:16:37 17° 328° (NNW) 05:19:28 435.350 FM
ITAMSAT 1 20 Oct 05:28:14 05:33:17 49° 288° (WNW) 05:38:17 435.822/435.867
O/OREOS (USA 219) 20 Oct 06:00:09 06:00:55 10° 55° (NE) 06:01:41 437.305
RS-15 20 Oct 06:08:42 06:14:40 14° 356° (N) 06:20:35 29.354- 29.394
KKS-1 20 Oct 06:13:07 06:17:11 37° 261° (W) 06:21:19 437.445
LilacSat-2 20 Oct 06:15:01 06:16:19 11° 92° (E) 06:17:37 437.200
XW-2D 20 Oct 06:22:07 06:24:06 14° 93° (E) 06:26:05 145.860 - 145.880
DOVE 4 20 Oct 06:24:25 06:29:28 85° 102° (ESE) 06:34:42 437.250
XW-2B 20 Oct 06:34:53 06:37:38 19° 95° (E) 06:40:23 145.730 - 145.750
STARS 20 Oct 06:46:55 06:51:00 39° 261° (W) 06:55:08 437.465
XW-2C 20 Oct 06:57:27 07:00:59 39° 99° (E) 07:04:29 145.795 - 145.815
JUGNU 20 Oct 06:57:31 07:00:17 14° 171° (S) 07:03:03 437.505
AO-7 20 Oct 07:02:16 07:07:11 17° 307° (NW) 07:12:07 .
STRAND 1 20 Oct 07:11:29 07:15:53 30° 69° (ENE) 07:20:20 437.568
HO-68 20 Oct 07:19:10 07:24:44 24° 95° (E) 07:30:15 435.675
PCSat 20 Oct 07:24:48 07:26:47 12° 102° (ESE) 07:28:45 145.827
SO-50 20 Oct 07:25:06 07:29:35 88° 300° (WNW) 07:34:05 436.795
CUTE-I 20 Oct 07:34:15 07:39:39 79° 102° (ESE) 07:45:01 437.470
O/OREOS (USA 219) 20 Oct 07:36:16 07:40:51 75° 252° (WSW) 07:45:24 437.305
CUTE 1.7 + AOD 2 20 Oct 07:38:43 07:42:10 24° 96° (E) 07:45:36 437.475
KAITUO 1B 20 Oct 07:41:21 07:45:00 69° 284° (WNW) 07:48:40 145.475/437.950
XW-2F 20 Oct 07:42:38 07:46:14 49° 285° (WNW) 07:49:49 145.980 - 146.000
SEEDS 20 Oct 07:46:57 07:49:50 18° 94° (E) 07:52:43 437.485
LilacSat-2 20 Oct 07:47:14 07:50:43 36° 286° (WNW) 07:54:11 437.200
XW-2D 20 Oct 07:55:01 07:58:20 30° 287° (WNW) 08:01:37 145.860 - 145.880
NUDT-PHONESAT 20 Oct 07:56:16 07:59:45 43° 285° (WNW) 08:03:13 437.300
XW-2A 20 Oct 08:02:56 08:04:22 12° 94° (E) 08:05:48 145.665 - 145.685
DOVE 4 20 Oct 08:05:38 08:06:28 10° 296° (WNW) 08:07:18 437.250
XW-2B 20 Oct 08:08:48 08:11:42 22° 289° (WNW) 08:14:37 145.730 - 145.750
FO-29 20 Oct 08:09:46 08:12:56 16° 62° (ENE) 08:16:14 435.910
AAUSAT CUBESAT 2 20 Oct 08:12:16 08:14:37 15° 93° (E) 08:16:57 437.432
